Wind_Speed
17 18 18 18 19 19 21 22 20 22 22 21 19 17 15 16 19 22 22 18 26 23 19 22 22 20 20 21 19 16 15 13 13 12 11 10 9 7 6 6 5 5 3
15 16 16 16 16 18 18 19 21 24 25 24 24 20 18 21 24 21 25 28 24 22 19 22 25 22 20 23 23 18 17 15 14 14 14 12 10 9 8 7 6 5 4
13 14 14 14 15 16 16 18 19 20 24 25 25 25 24 23 25 26 26 28 23 27 24 24 25 25 23 23 25 22 20 18 17 15 15 13 11 10 10 8 6 6 5
13 14 13 13 15 15 15 16 19 22 22 24 27 27 28 27 29 33 31 29 30 25 28 27 29 27 27 25 24 26 23 20 20 18 16 15 13 12 11 9 7 7 6
13 14 14 14 16 16 17 18 19 20 23 25 27 29 32 29 26 33 37 35 38 26 29 31 33 33 30 28 25 26 25 24 21 20 18 16 15 14 12 10 9 8 7
13 14 14 14 16 17 17 19 20 20 19 24 25 26 30 32 30 28 35 39 37 34 28 33 35 37 30 31 28 28 28 25 23 22 20 18 16 15 13 11 10 9 7
14 15 16 16 16 16 18 18 20 23 21 18 23 24 26 32 38 33 31 33 36 33 33 27 36 38 38 34 33 32 29 28 26 23 21 19 17 15 13 12 11 9 6
15 15 16 16 17 19 18 19 20 22 21 21 17 20 7 19 28 28 31 33 32 33 32 34 31 37 41 41 37 35 33 30 28 25 23 20 18 16 15 13 11 9 8
14 16 16 17 18 18 21 20 21 21 22 22 19 13 5 7 20 40 36 34 33 36 33 33 32 36 39 41 41 38 37 34 31 27 24 21 19 17 15 14 12 10 8
16 14 16 18 18 20 19 21 21 24 25 22 24 20 17 22 12 14 31 30 31 35 35 34 37 33 39 39 43 43 40 37 34 30 26 22 20 18 16 15 13 10 9
14 17 18 19 20 21 22 22 23 25 28 28 25 21 19 22 26 17 14 20 26 33 38 37 36 40 39 40 42 44 44 39 35 33 28 24 21 18 17 16 14 12 10
17 18 19 20 21 24 25 24 28 27 28 29 28 26 21 14 22 20 12 16 15 35 37 38 38 37 42 40 43 45 47 44 37 34 31 27 22 19 17 16 14 12 10
18 19 20 22 25 22 27 28 27 29 30 30 31 27 23 22 30 30 24 18 12 30 31 34 36 43 34 43 42 43 48 46 42 36 33 29 25 21 18 17 15 13 11
20 21 25 21 25 29 27 27 29 30 32 31 30 26 30 33 32 31 24 22 13 12 29 41 34 39 35 42 46 40 45 45 45 39 34 31 27 23 20 19 16 14 12
22 22 23 27 27 25 27 28 29 32 32 23 24 30 33 35 34 31 33 33 24 9 13 36 21 42 37 35 44 43 46 46 47 44 37 32 30 26 23 20 18 16 14
25 23 26 25 29 28 26 29 31 28 25 27 31 33 35 37 35 35 36 37 32 22 13 23 16 35 36 35 42 46 46 46 44 43 39 34 31 28 24 22 20 17 15
24 25 27 28 29 28 29 27 29 31 32 31 32 34 40 42 40 36 37 29 22 24 18 26 23 26 37 38 42 42 44 44 42 42 41 37 32 29 25 22 19 18 16
24 27 28 29 30 28 28 30 32 32 27 28 35 37 43 43 36 35 28 28 28 26 28 15 21 22 41 38 46 42 39 42 42 41 41 37 34 31 27 23 20 18 16
26 28 29 27 30 32 32 32 31 30 29 30 32 40 34 37 32 27 25 25 26 33 25 19 23 21 41 41 39 38 34 36 38 40 40 39 36 32 29 24 21 18 17
25 26 28 29 30 33 30 31 32 27 30 31 32 36 40 36 31 24 26 28 29 20 22 20 27 24 39 37 40 36 30 32 31 37 39 39 36 33 29 25 22 19 17
24 26 30 30 28 30 28 26 29 30 33 30 30 35 37 37 42 30 28 25 26 21 16 14 13 22 32 34 35 34 33 31 30 36 37 38 37 34 30 26 23 20 18
23 26 27 28 29 28 27 30 31 33 32 30 27 35 39 38 37 38 32 28 27 26 20 15 18 20 32 36 35 36 35 32 14 33 35 32 40 37 34 30 26 22 19
25 26 27 26 28 30 28 30 31 31 32 31 28 31 36 36 35 33 28 19 31 29 29 23 18 25 32 39 41 36 36 37 27 36 36 25 37 35 34 30 26 23 21
24 25 27 27 27 29 28 29 31 31 28 32 33 33 29 38 39 36 32 23 18 27 27 25 27 22 36 42 47 42 42 34 29 36 39 17 29 26 32 29 26 23 22
25 26 25 26 28 29 28 29 28 28 27 32 33 29 33 35 36 35 34 27 22 24 28 35 29 24 35 44 47 43 38 32 25 31 34 24 26 22 28 26 26 23 23
24 25 25 24 26 25 25 27 27 26 26 27 24 29 30 34 38 38 38 28 22 25 33 31 29 29 30 47 51 46 44 36 33 19 31 18 34 26 9 23 28 25 24
Wind_Direction
9 359 3 359 358 355 350 343 337 333 328 318 311 287 277 258 262 266 253 240 236 232 218 199 215 207 179 182 194 199 205 204 208 207 200 209 210 205 205 203 202 196 205
5 360 358 358 358 353 348 341 337 332 328 323 313 313 272 272 263 273 267 242 236 235 228 211 210 211 203 182 187 193 194 204 209 211 205 206 205 210 211 202 207 212 223
1 0 355 354 356 351 345 343 339 334 329 326 317 306 298 274 272 269 268 253 238 234 231 218 219 205 213 199 185 189 191 204 210 209 212 206 207 208 215 208 213 218 217
355 355 352 351 351 353 348 344 340 335 327 322 316 314 300 288 269 277 264 257 236 236 229 225 217 211 210 210 195 187 194 201 207 212 211 209 206 207 211 212 216 222 226
345 345 347 346 345 347 347 343 336 332 326 318 311 306 301 299 286 270 268 262 252 237 235 228 222 220 212 210 205 196 191 194 204 209 212 210 208 209 208 211 217 224 235
335 337 335 334 335 335 337 335 332 329 325 321 318 309 303 298 291 284 264 263 255 245 233 224 224 220 216 207 209 203 193 193 202 207 210 207 207 209 206 212 217 225 233
326 327 327 328 329 328 329 331 327 324 320 320 321 324 315 306 299 295 285 261 248 240 235 226 223 220 215 212 209 206 201 194 197 203 207 204 204 205 205 210 213 222 226
320 320 319 322 328 325 324 320 315 315 312 313 326 321 318 311 301 298 290 266 256 240 235 231 218 221 215 212 209 207 200 196 194 199 204 204 202 202 202 205 210 215 221
314 314 315 319 318 318 319 315 315 311 311 309 304 297 309 303 318 302 299 299 271 243 235 226 224 212 208 211 206 205 204 198 195 195 201 200 200 198 201 202 206 210 218
309 308 311 309 311 310 309 311 308 303 301 297 300 287 285 292 299 299 295 290 298 259 236 225 220 212 199 205 204 203 202 199 197 190 197 196 198 196 196 203 205 204 217
309 308 307 308 309 306 306 300 303 301 295 292 290 299 298 299 294 279 288 295 299 295 243 229 217 212 200 200 197 202 201 201 196 192 191 190 193 192 192 198 202 200 208
309 307 304 304 305 305 301 300 301 297 296 289 292 289 278 289 294 286 276 281 286 279 295 233 219 212 195 195 195 201 201 200 202 196 189 186 186 190 188 190 194 194 200
303 302 303 304 302 303 304 303 299 300 296 289 286 279 276 282 288 278 276 278 278 281 283 258 216 211 200 188 190 198 202 199 205 199 191 188 182 187 185 185 188 187 189
299 297 299 298 303 301 296 298 298 296 293 288 291 286 291 289 281 266 268 280 272 276 272 268 239 208 210 183 189 194 199 203 202 201 194 189 180 184 185 185 182 183 181
294 291 293 296 296 295 295 295 294 295 295 298 303 297 287 288 278 273 271 259 250 257 265 265 234 205 197 184 188 193 197 199 201 202 195 188 182 185 188 184 184 184 177
288 290 296 296 297 295 295 296 293 295 292 299 306 297 291 288 284 276 266 258 227 233 254 260 270 190 191 181 184 188 190 193 200 199 194 188 185 189 188 190 189 182 180
296 298 301 300 297 295 295 294 295 294 294 295 301 297 294 288 277 272 265 250 240 240 240 256 255 256 181 178 176 181 186 189 196 198 195 189 188 188 188 192 190 186 182
301 302 301 299 298 296 298 293 291 292 292 300 302 301 292 290 277 261 263 238 240 244 236 249 251 255 181 179 173 175 181 192 197 199 197 190 191 188 188 189 191 188 184
298 298 298 301 301 297 294 291 291 290 295 299 292 306 302 303 295 264 260 257 256 252 215 233 269 262 185 174 167 175 172 182 199 197 198 193 192 188 186 187 190 190 186
296 299 304 301 298 296 295 296 293 292 299 298 293 308 306 299 300 282 262 252 248 206 219 224 250 261 170 167 167 164 171 176 178 184 190 191 189 188 186 187 188 192 187
298 303 303 299 300 301 297 298 299 304 302 296 301 312 308 307 313 307 293 235 229 216 216 232 249 231 163 162 170 169 169 168 172 172 170 181 184 185 185 187 189 192 188
306 306 301 305 303 306 303 303 304 302 303 303 306 316 311 312 317 321 302 237 218 212 209 224 259 222 165 166 168 169 167 164 159 175 162 164 183 182 186 187 189 191 189
311 306 304 306 306 303 305 304 304 305 304 308 304 309 309 314 314 313 311 286 224 220 219 220 274 172 171 170 168 170 172 173 171 163 160 153 178 178 189 186 190 193 190
306 306 306 304 305 305 304 307 308 305 308 308 308 304 305 313 314 320 321 288 275 234 228 222 226 257 187 177 172 173 173 166 150 158 162 148 167 169 186 189 194 194 194
306 305 304 305 304 303 306 307 307 310 310 307 307 310 312 308 310 311 310 305 281 228 232 227 239 241 200 182 174 168 170 153 150 160 169 145 160 154 178 183 190 195 193
306 305 304 306 306 308 318 316 312 309 310 305 310 314 310 312 310 311 307 297 282 212 193 204 226 236 205 184 178 173 166 164 157 149 170 143 155 146 142 181 184 186 187
Height
827 826 824 823 822 820 819 816 814 812 809 807 807 805 804 805 805 805 804 804 806 805 806 806 813 813 805 810 817 824 827 830 833 834 835 837 838 839 841 842 843 843 845
828 826 825 823 821 820 819 818 816 813 810 807 804 803 802 801 802 802 801 801 801 802 801 805 805 811 811 805 810 818 823 827 830 833 832 834 836 838 840 840 842 843 844
828 827 825 824 822 820 818 817 815 813 811 807 805 801 799 798 796 797 797 796 796 797 798 798 804 803 810 808 805 812 817 824 827 830 831 832 835 837 839 840 842 843 842
827 826 826 824 822 821 819 816 814 813 810 808 804 801 797 794 793 791 790 791 791 791 793 794 798 799 804 808 806 806 811 818 823 826 828 830 832 835 837 839 840 842 841
827 826 825 823 822 819 818 816 815 813 810 808 804 799 795 791 789 786 782 783 785 784 785 788 791 796 797 803 806 805 807 812 819 822 825 827 830 832 835 838 839 840 841
826 824 823 822 820 819 817 815 813 812 810 807 803 798 794 788 784 782 779 776 776 778 780 781 784 789 792 795 801 804 804 807 813 818 821 824 827 830 833 836 837 839 840
824 822 820 819 818 817 815 814 811 809 808 806 801 797 791 786 779 778 775 772 768 770 774 774 776 780 785 789 794 799 801 803 807 813 818 820 823 826 830 833 835 837 839
821 820 819 818 816 814 813 812 811 808 806 805 802 798 788 784 780 773 769 765 763 765 766 770 769 772 776 781 788 793 797 799 802 809 813 817 820 823 827 830 833 835 837
819 818 816 815 814 813 812 810 809 807 803 802 802 801 795 786 782 773 767 763 761 757 758 760 763 765 768 773 781 787 792 795 797 803 809 813 817 820 824 828 831 833 835
816 815 814 813 811 810 808 807 805 803 801 797 794 795 794 792 788 771 761 759 756 754 749 751 755 758 760 766 773 779 786 791 793 796 805 809 814 817 821 825 829 831 833
814 812 811 809 808 806 804 802 801 799 797 794 790 788 786 785 784 779 765 751 752 749 745 745 746 752 752 759 765 772 780 786 789 792 799 804 810 814 818 823 826 828 830
810 809 808 806 804 802 800 798 795 793 790 787 784 783 781 782 778 774 767 756 755 745 745 739 739 744 742 752 756 764 774 780 786 790 793 799 805 811 815 819 823 825 828
806 805 804 802 800 798 796 793 790 787 784 781 777 775 775 775 773 768 763 751 749 736 740 730 730 733 736 743 748 757 766 773 782 786 788 794 801 808 813 816 821 823 825
802 801 800 798 796 793 790 787 785 780 777 774 771 769 766 764 762 758 757 752 743 737 735 732 726 723 730 732 740 750 759 767 776 782 785 790 797 805 809 813 818 821 823
798 796 794 791 789 786 784 780 777 773 770 767 765 763 758 752 750 746 745 745 739 732 729 723 712 716 725 728 734 743 751 760 770 777 781 786 794 801 805 812 814 818 820
792 790 787 785 782 779 777 773 769 766 763 760 758 754 748 741 737 734 729 729 726 728 724 712 705 706 717 724 729 736 743 756 765 773 777 782 790 797 802 808 812 815 818
787 785 782 779 775 771 769 766 762 759 756 753 749 744 736 728 723 718 712 710 711 714 715 705 709 712 709 718 725 732 739 751 760 768 773 778 786 792 799 805 810 812 815
782 780 776 772 769 765 762 759 754 750 747 744 740 734 724 715 706 705 702 702 705 703 704 701 701 704 702 711 714 726 735 746 754 763 769 775 783 789 796 802 807 810 812
777 774 770 767 763 759 754 751 747 743 740 736 731 724 714 706 697 693 693 691 690 691 692 693 692 693 695 703 710 722 731 742 751 759 767 772 780 786 792 799 804 808 810
771 768 765 761 756 752 747 744 740 736 733 728 722 715 707 698 692 685 683 683 682 679 686 688 690 682 684 696 706 716 729 738 747 754 763 769 778 785 789 796 801 806 808
766 763 759 754 750 746 742 737 734 729 725 720 714 706 698 688 681 676 669 670 674 675 677 679 679 678 679 690 699 711 721 733 742 749 756 765 773 782 787 793 798 803 806
760 757 754 750 744 741 737 732 728 723 717 712 708 702 690 681 672 668 661 661 666 667 672 675 673 672 671 683 694 704 714 725 735 746 750 760 768 777 783 788 794 800 804
755 753 748 744 738 735 731 726 722 717 711 706 703 699 687 678 671 665 657 654 658 659 663 664 669 664 670 677 687 699 708 716 721 732 745 757 766 773 781 786 792 797 801
750 746 744 739 734 729 725 720 715 711 706 699 694 689 685 674 666 659 654 647 643 648 649 653 662 669 669 674 678 689 702 714 723 731 740 755 764 771 779 784 790 795 800
745 742 739 734 730 724 719 714 709 706 702 695 687 684 679 672 664 656 651 645 640 639 646 649 653 660 667 671 676 687 696 707 717 728 737 743 759 770 778 782 788 793 797
739 736 732 729 724 720 715 710 706 701 696 691 686 680 673 666 656 651 646 639 636 633 639 646 649 654 660 666 672 678 687 697 707 725 732 739 751 761 776 782 786 790 796